Tampa, FL

2:54 AM EST on December 16, 2019 (GMT -0500)
Tampa International

Weather History for KTPA - October, 2019

Change the Weather History Date:

Tuesday, October 22, 2019

  Actual Average Record
Temperature  
Mean Temperature 82 °F 75 °F  
Max Temperature 88 °F 83 °F 91 °F (1990)
Min Temperature 76 °F 66 °F 48 °F (1964)
Degree Days  
Heating Degree Days 0 0  
Month to date heating degree days 0 0  
Since 1 July heating degree days 0 0  
Cooling Degree Days 17 10  
Month to date cooling degree days 355 271  
Year to date cooling degree days 3852 3287  
Growing Degree Days 33 (Base 50)    
Moisture  
Dew Point 76 °F    
Average Humidity 80    
Maximum Humidity 97    
Minimum Humidity 63    
Precipitation  
Precipitation 0.00 in 0.06 in 1.10 in (1947)
Month to date precipitation 6.72 1.79  
Year to date precipitation 55.49 41.81  
Sea Level Pressure  
Sea Level Pressure 30.00 in    
Wind  
Wind Speed 7 mph (South)    
Max Wind Speed 16 mph    
Max Gust Speed 22 mph    
Visibility 8 miles    
Events      
T = Trace of Precipitation, MM = Missing Value Source: NWS Daily Summary

Daily Weather History Graph

Daily Weather History Graph

Search for Another Location

Airport or City:

Astronomy

Oct. 22, 2019 Rise Set
Actual Time 7:34 AM EDT 6:54 PM EDT
Civil Twilight 7:10 AM EDT 7:18 PM EDT
Nautical Twilight 6:43 AM EDT 7:45 PM EDT
Astronomical Twilight 6:15 AM EDT 8:12 PM EDT
Moon 1:25 AM EDT (10/22) 3:23 PM EDT (10/22)
Length of Visible Light 12h 07m
Length of Day
11h 19m
Last Quarter, 37% of the Moon is Illuminated
Oct 22
Last Quarter
Oct 27
New
Nov 4
First Quarter
Nov 12
Full
Nov 19
Last Quarter

Hourly Weather History & Observations

Time (EDT) Temp. Heat Index Dew Point Humidity Pressure Visibility Wind Dir Wind Speed Gust Speed Precip Events Conditions
12:53 AM 79.0 °F - 77.0 °F 94% 30.02 in 8.0 mi South 3.5 mph - N/A   Partly Cloudy
1:53 AM 79.0 °F - 77.0 °F 94% 30.01 in 7.0 mi Calm Calm - N/A   Partly Cloudy
2:41 AM 79.0 °F - 77.0 °F 94% 30.01 in 6.0 mi Calm Calm - N/A   Mostly Cloudy
2:53 AM 79.0 °F - 77.0 °F 94% 30.01 in 6.0 mi SSE 3.5 mph - N/A   Overcast
3:15 AM 79.0 °F - 77.0 °F 94% 30.00 in 6.0 mi SSE 4.6 mph - N/A   Mostly Cloudy
3:29 AM 79.0 °F - 77.0 °F 94% 30.00 in 7.0 mi SSE 3.5 mph - N/A   Partly Cloudy
3:53 AM 79.0 °F - 77.0 °F 94% 29.99 in 6.0 mi SSE 4.6 mph - N/A   Scattered Clouds
4:51 AM 78.8 °F - 77.0 °F 94% 29.99 in 6.0 mi South 4.6 mph - N/A   Mostly Cloudy
4:53 AM 79.0 °F - 77.0 °F 94% 29.99 in 6.0 mi South 4.6 mph - N/A   Mostly Cloudy
5:37 AM 79.0 °F - 77.0 °F 94% 29.99 in 6.0 mi SSE 3.5 mph - N/A   Mostly Cloudy
5:47 AM 78.8 °F - 77.0 °F 94% 30.00 in 5.0 mi Calm Calm - N/A   Scattered Clouds
5:53 AM 79.0 °F - 77.0 °F 94% 30.00 in 5.0 mi South 3.5 mph - N/A   Scattered Clouds
6:01 AM 79.0 °F - 77.0 °F 94% 30.00 in 5.0 mi Calm Calm - N/A   Partly Cloudy
6:22 AM 79.0 °F - 77.0 °F 94% 30.00 in 6.0 mi SE 3.5 mph - N/A   Mostly Cloudy
6:53 AM 79.0 °F - 77.0 °F 94% 30.01 in 6.0 mi SE 3.5 mph - N/A   Mostly Cloudy
7:12 AM 79.0 °F - 77.0 °F 94% 30.01 in 6.0 mi SSE 4.6 mph - N/A   Mostly Cloudy
7:26 AM 79.0 °F - 77.0 °F 94% 30.01 in 5.0 mi South 3.5 mph - N/A   Scattered Clouds
7:53 AM 79.0 °F - 77.0 °F 94% 30.02 in 4.0 mi South 4.6 mph - N/A   Mostly Cloudy
8:36 AM 80.1 °F 86.4 °F 78.1 °F 94% 30.01 in 7.0 mi South 6.9 mph - N/A   Partly Cloudy
8:53 AM 80.1 °F 86.4 °F 78.1 °F 94% 30.02 in 8.0 mi South 5.8 mph - N/A   Partly Cloudy
9:53 AM 82.0 °F 91.0 °F 78.1 °F 88% 30.02 in 10.0 mi South 10.4 mph - N/A   Scattered Clouds
10:53 AM 84.0 °F 96.0 °F 79.0 °F 85% 30.03 in 10.0 mi SSW 11.5 mph - N/A   Scattered Clouds
11:53 AM 86.0 °F 96.9 °F 77.0 °F 74% 30.01 in 10.0 mi South 12.7 mph - N/A   Partly Cloudy
12:53 PM 86.0 °F 98.3 °F 78.1 °F 77% 29.99 in 10.0 mi South 11.5 mph - N/A   Scattered Clouds
1:53 PM 88.0 °F 97.5 °F 75.0 °F 65% 29.97 in 10.0 mi WSW 10.4 mph - N/A   Scattered Clouds
2:53 PM 87.1 °F 96.3 °F 75.0 °F 67% 29.96 in 10.0 mi WSW 10.4 mph - N/A   Scattered Clouds
3:53 PM 87.1 °F 94.5 °F 73.0 °F 63% 29.96 in 10.0 mi West 12.7 mph - N/A   Scattered Clouds
4:53 PM 86.0 °F 95.1 °F 75.0 °F 70% 29.96 in 10.0 mi WSW 9.2 mph - N/A   Scattered Clouds
5:53 PM 84.9 °F 93.3 °F 75.0 °F 72% 29.96 in 10.0 mi West 9.2 mph - N/A   Scattered Clouds
6:53 PM 84.0 °F 91.9 °F 75.0 °F 74% 29.98 in 10.0 mi West 10.4 mph - N/A   Mostly Cloudy
7:53 PM 79.0 °F - 73.0 °F 82% 29.99 in 10.0 mi NW 4.6 mph - N/A   Scattered Clouds
8:53 PM 79.0 °F - 73.9 °F 84% 30.01 in 10.0 mi Calm Calm - N/A   Scattered Clouds
9:53 PM 78.1 °F - 73.0 °F 84% 30.02 in 10.0 mi NW 3.5 mph - N/A   Partly Cloudy
11:53 PM 77.0 °F - 73.9 °F 90% 30.03 in 10.0 mi North 4.6 mph - N/A   Scattered Clouds